• In Moldova, Republic
  • List of Countries
  • For 7 days
  • Water Temperature
  • Satellite Maps
  • Weather Map
  • Weather Widgets
  • user-avatar
    Login

    Hourly Weather Yulara

    Today, 25 July, Tuesday

    Time Temperature Precipitation Wind Pressure Humidity
    00:00 +19°C° 0 mm 1 mps 721 mmHg 28%
    01:00 +18°C° 0 mm 2 mps 721 mmHg 28%
    02:00 +18°C° 0 mm 2 mps 721 mmHg 28%
    03:00 +17°C° 0 mm 3 mps 721 mmHg 28%
    04:00 +17°C° 0 mm 3 mps 721 mmHg 29%
    05:00 +16°C° 0 mm 3 mps 722 mmHg 29%
    06:00 +16°C° 0 mm 3 mps 722 mmHg 30%
    07:00 +17°C° 0 mm 3 mps 722 mmHg 27%
    08:00 +19°C° 0 mm 3 mps 722 mmHg 25%
    09:00 +20°C° 0 mm 2 mps 723 mmHg 22%
    10:00 +23°C° 0 mm 2 mps 723 mmHg 20%
    11:00 +24°C° 0 mm 3 mps 723 mmHg 18%
    12:00 +26°C° 0 mm 3 mps 722 mmHg 16%
    13:00 +26°C° 0 mm 2 mps 722 mmHg 16%
    14:00 +27°C° 0 mm 2 mps 722 mmHg 16%
    15:00 +27°C° 0 mm 2 mps 721 mmHg 15%
    16:00 +26°C° 0 mm 1 mps 721 mmHg 18%
    17:00 +24°C° 0 mm 1 mps 721 mmHg 22%
    18:00 +22°C° 0 mm 1 mps 720 mmHg 25%
    19:00 +22°C° 0 mm 1 mps 721 mmHg 25%
    20:00 +21°C° 0 mm 1 mps 721 mmHg 25%
    21:00 +21°C° 0 mm 1 mps 721 mmHg 25%
    22:00 +21°C° 0 mm 1 mps 722 mmHg 26%
    23:00 +19°C° 0 mm 2 mps 722 mmHg 26%

    Tomorrow, 26 July, Wednesday

    Time Temperature Precipitation Wind Pressure Humidity
    00:00 +19°C° 0 mm 2 mps 722 mmHg 26%
    01:00 +18°C° 0 mm 2 mps 722 mmHg 27%
    02:00 +18°C° 0 mm 2 mps 722 mmHg 27%
    03:00 +17°C° 0 mm 2 mps 721 mmHg 28%
    04:00 +16°C° 0 mm 2 mps 721 mmHg 29%
    05:00 +16°C° 0 mm 2 mps 721 mmHg 30%
    06:00 +15°C° 0 mm 1 mps 721 mmHg 30%
    07:00 +17°C° 0 mm 2 mps 722 mmHg 27%
    08:00 +19°C° 0 mm 2 mps 723 mmHg 24%
    09:00 +21°C° 0 mm 2 mps 723 mmHg 21%
    10:00 +23°C° 0 mm 2 mps 723 mmHg 19%
    11:00 +25°C° 0 mm 3 mps 723 mmHg 17%
    12:00 +27°C° 0 mm 4 mps 723 mmHg 15%
    13:00 +27°C° 0 mm 4 mps 722 mmHg 15%
    14:00 +28°C° 0 mm 4 mps 722 mmHg 15%
    15:00 +28°C° 0 mm 4 mps 721 mmHg 14%
    16:00 +27°C° 0 mm 4 mps 721 mmHg 16%
    17:00 +25°C° 0 mm 3 mps 721 mmHg 18%
    18:00 +24°C° 0 mm 3 mps 721 mmHg 20%
    19:00 +22°C° 0 mm 3 mps 721 mmHg 20%
    20:00 +21°C° 0 mm 3 mps 722 mmHg 21%
    21:00 +21°C° 0 mm 4 mps 722 mmHg 22%
    22:00 +20°C° 0 mm 4 mps 722 mmHg 23%
    23:00 +19°C° 0 mm 4 mps 722 mmHg 24%

    Day after tomorrow, 27 July, Thursday

    Time Temperature Precipitation Wind Pressure Humidity
    00:00 +18°C° 0 mm 4 mps 722 mmHg 25%
    01:00 +18°C° 0 mm 4 mps 722 mmHg 25%
    02:00 +17°C° 0 mm 4 mps 722 mmHg 26%
    03:00 +15°C° 0 mm 4 mps 722 mmHg 27%
    04:00 +16°C° 0 mm 3 mps 722 mmHg 28%
    05:00 +14°C° 0 mm 3 mps 722 mmHg 29%
    06:00 +14°C° 0 mm 3 mps 722 mmHg 30%
    07:00 +16°C° 0 mm 3 mps 723 mmHg 28%
    08:00 +18°C° 0 mm 3 mps 723 mmHg 26%
    09:00 +19°C° 0 mm 3 mps 724 mmHg 25%
    10:00 +21°C° 0 mm 3 mps 724 mmHg 22%
    11:00 +24°C° 0 mm 3 mps 723 mmHg 20%
    12:00 +26°C° 0 mm 4 mps 723 mmHg 17%
    13:00 +26°C° 0 mm 3 mps 723 mmHg 16%
    14:00 +27°C° 0 mm 3 mps 722 mmHg 15%
    15:00 +27°C° 0 mm 2 mps 721 mmHg 14%
    16:00 +26°C° 0 mm 2 mps 721 mmHg 16%
    17:00 +24°C° 0 mm 2 mps 721 mmHg 18%
    18:00 +21°C° 0 mm 2 mps 721 mmHg 20%
    19:00 +21°C° 0 mm 2 mps 721 mmHg 20%
    20:00 +20°C° 0 mm 2 mps 722 mmHg 20%
    21:00 +20°C° 0 mm 3 mps 722 mmHg 20%
    22:00 +19°C° 0 mm 3 mps 722 mmHg 21%
    23:00 +19°C° 0 mm 3 mps 722 mmHg 21%

    28 July, Friday

    Time Temperature Precipitation Wind Pressure Humidity
    00:00 +18°C° 0 mm 3 mps 722 mmHg 22%
    01:00 +17°C° 0 mm 3 mps 722 mmHg 23%
    02:00 +17°C° 0 mm 3 mps 721 mmHg 24%
    03:00 +16°C° 0 mm 3 mps 721 mmHg 25%
    04:00 +14°C° 0 mm 3 mps 721 mmHg 26%
    05:00 +15°C° 0 mm 2 mps 721 mmHg 27%
    06:00 +14°C° 0 mm 2 mps 721 mmHg 28%
    07:00 +16°C° 0 mm 2 mps 722 mmHg 26%
    08:00 +17°C° 0 mm 2 mps 722 mmHg 25%
    09:00 +19°C° 0 mm 3 mps 723 mmHg 23%
    10:00 +21°C° 0 mm 3 mps 723 mmHg 21%
    11:00 +23°C° 0 mm 4 mps 723 mmHg 19%
    12:00 +26°C° 0 mm 4 mps 722 mmHg 17%
    13:00 +26°C° 0 mm 4 mps 722 mmHg 16%
    14:00 +27°C° 0 mm 4 mps 721 mmHg 15%
    15:00 +28°C° 0 mm 4 mps 720 mmHg 14%
    16:00 +26°C° 0 mm 4 mps 720 mmHg 16%
    17:00 +25°C° 0 mm 3 mps 720 mmHg 17%
    18:00 +23°C° 0 mm 2 mps 720 mmHg 19%
    19:00 +21°C° 0 mm 2 mps 720 mmHg 20%
    20:00 +21°C° 0 mm 2 mps 720 mmHg 20%
    21:00 +20°C° 0 mm 2 mps 721 mmHg 21%
    22:00 +19°C° 0 mm 2 mps 721 mmHg 22%
    23:00 +19°C° 0 mm 2 mps 721 mmHg 22%

    29 July, Saturday

    Time Temperature Precipitation Wind Pressure Humidity
    00:00 +18°C° 0 mm 3 mps 720 mmHg 23%
    01:00 +18°C° 0 mm 3 mps 720 mmHg 23%
    02:00 +17°C° 0 mm 3 mps 720 mmHg 24%
    03:00 +17°C° 0 mm 3 mps 719 mmHg 25%
    04:00 +16°C° 0 mm 3 mps 719 mmHg 26%
    05:00 +15°C° 0 mm 4 mps 719 mmHg 27%
    06:00 +15°C° 0 mm 4 mps 719 mmHg 28%
    07:00 +17°C° 0 mm 4 mps 720 mmHg 27%
    08:00 +19°C° 0 mm 5 mps 720 mmHg 25%
    09:00 +20°C° 0 mm 6 mps 720 mmHg 24%
    10:00 +22°C° 0 mm 7 mps 720 mmHg 22%
    11:00 +24°C° 0 mm 7 mps 720 mmHg 20%
    12:00 +27°C° 0 mm 8 mps 719 mmHg 18%
    13:00 +28°C° 0 mm 8 mps 719 mmHg 17%
    14:00 +29°C° 0 mm 7 mps 718 mmHg 16%
    15:00 +30°C° 0 mm 7 mps 717 mmHg 15%
    16:00 +28°C° 0 mm 6 mps 717 mmHg 17%
    17:00 +27°C° 0 mm 5 mps 717 mmHg 20%
    18:00 +25°C° 0 mm 4 mps 717 mmHg 22%
    19:00 +23°C° 0 mm 4 mps 718 mmHg 23%
    20:00 +23°C° 0 mm 4 mps 718 mmHg 25%
    21:00 +22°C° 0 mm 4 mps 719 mmHg 27%
    22:00 +20°C° 0 mm 4 mps 719 mmHg 34%
    23:00 +19°C° 0 mm 5 mps 719 mmHg 41%

    30 July, Sunday

    Time Temperature Precipitation Wind Pressure Humidity
    00:00 +17°C° 0 mm 5 mps 719 mmHg 48%
    01:00 +16°C° 0 mm 5 mps 718 mmHg 52%
    02:00 +16°C° 0 mm 5 mps 718 mmHg 56%
    03:00 +15°C° 0 mm 5 mps 718 mmHg 59%
    04:00 +14°C° 0 mm 4 mps 719 mmHg 60%
    05:00 +14°C° 0 mm 4 mps 719 mmHg 60%
    06:00 +13°C° 0 mm 3 mps 720 mmHg 61%
    07:00 +14°C° 0 mm 4 mps 720 mmHg 57%
    08:00 +15°C° 0 mm 4 mps 721 mmHg 52%
    09:00 +17°C° 0 mm 4 mps 721 mmHg 48%
    10:00 +18°C° 0 mm 4 mps 721 mmHg 44%
    11:00 +19°C° 0 mm 3 mps 721 mmHg 41%
    12:00 +20°C° 0 mm 3 mps 720 mmHg 37%
    13:00 +21°C° 0 mm 2 mps 720 mmHg 35%
    14:00 +21°C° 0 mm 2 mps 719 mmHg 33%
    15:00 +23°C° 0 mm 2 mps 719 mmHg 31%
    16:00 +21°C° 0 mm 2 mps 719 mmHg 31%
    17:00 +20°C° 0 mm 2 mps 719 mmHg 31%
    18:00 +20°C° 0 mm 2 mps 719 mmHg 31%
    19:00 +19°C° 0 mm 4 mps 720 mmHg 30%
    20:00 +17°C° 0 mm 5 mps 721 mmHg 29%
    21:00 +16°C° 0 mm 6 mps 721 mmHg 29%
    22:00 +15°C° 0 mm 6 mps 721 mmHg 30%
    23:00 +14°C° 0 mm 6 mps 721 mmHg 31%
    Show more